"Pseudo-MPEC" for P22oG6X

Created 2026 Aug 7 2:35:09 UT using Find_Orb

Click here for an explanation of pseudo-MPECs

 
 Astrometry: 
     P22oG6X*0C2026 07 26.54141623 21 59.519-19 11 38.12   ~7QFZ 21.66wXNEOCPF52
     P22oG6X 0C2026 07 26.56458723 22 00.765-19 11 12.30   ~7QFZ 21.84wXNEOCPF52
     P22oG6X 0C2026 07 26.57609323 22 01.377-19 10 59.62   ~7QFZ 21.77wXNEOCPF52
     P22oG6X 0C2026 07 27.60478223 23 01.817-18 51 52.88   ~7RL5 21.88GVNEOCPF52
     P22oG6X 0C2026 07 27.60558923 23 01.847-18 51 51.83   ~7RL5 22.30GVNEOCPF52

Station data:
(F52) Pan-STARRS 2, Haleakala  (N20.707382 W156.255910)  US/Hawaii.
   Observers J. Herman, T. Lowe, P. Minguez, A. Schultz, I. Smith. Measurers
   K. Chambers, T. de Boer, J. Fairlamb, H. Gao, M. Huber, C.-C. Lin, E.
   Magnier, Y. Ramanjooloo, R. Wainscoat, R. Weryk. 1.8-m Ritchey-Chrétien +
   CCD.

Orbital elements:  P22oG6X
   Perihelion 2026 Jul 16.621775 +/- 39.7 TT = 14:55:21.3 (JD 2461238.121775)
Epoch 2026 Jul 27.0 TT = JDT 2461248.5   Earth MOID: 0.4661   Ju: 0.1908
M   0.535858840 +/- 8               Sa: 0.1760                   AutoNEOCP
n   0.051632996 +/- 0.0634          Peri.  315.588957 +/- 42
a   7.142515034 +/- 5.85            Node   353.608937 +/- 8
e   0.79503753 +/- 0.139            Incl.    8.554910 +/- 3.6
P  19.08872                H 21.16  G  0.15   U 10.9  SR
q 1.463947520 +/- 0.142    Q 12.82108254 +/- 9.52         (J2000 ecliptic)
From 5 observations 2026 July 26-27 (25.5 hr); mean residual 0".07
Residuals in arcseconds: 
260726 F52  .09+  .01+    260726 F52  .11-  .08-    260727 F52  .08-  .07+    
260726 F52  .01+  .07+    260727 F52  .08+  .07-    

Ephemerides (geocentric):
Date (UTC) HH   RA             Dec           delta  r     elong  mag " sig PA
---- --------  ------------   ------------  ------ ------ -----  --- --------
2026 08 07 03  23 30 09.474   -15 36 35.87  .53740 1.4890 145.6 21.8 1542 146
2026 08 07 04  23 30 10.482   -15 35 49.97  .53738 1.4891 145.7 21.8 1554 146
2026 08 07 05  23 30 11.486   -15 35 04.08  .53737 1.4892 145.7 21.8 1567 146
2026 08 07 06  23 30 12.484   -15 34 18.19  .53736 1.4893 145.7 21.8 1579 146
2026 08 07 07  23 30 13.477   -15 33 32.31  .53734 1.4894 145.8 21.8 1592 146
2026 08 07 08  23 30 14.465   -15 32 46.44  .53733 1.4895 145.8 21.8 1604 146
2026 08 07 09  23 30 15.448   -15 32 00.57  .53732 1.4896 145.8 21.8 1617 146
2026 08 07 10  23 30 16.426   -15 31 14.72  .53730 1.4897 145.9 21.8 1630 146
2026 08 07 11  23 30 17.398   -15 30 28.86  .53729 1.4898 145.9 21.8 1642 146
2026 08 07 12  23 30 18.365   -15 29 43.02  .53728 1.4899 145.9 21.8 1655 146
2026 08 07 13  23 30 19.327   -15 28 57.18  .53727 1.4900 146.0 21.8 1668 146
2026 08 07 14  23 30 20.284   -15 28 11.34  .53725 1.4901 146.0 21.8 1681 146
2026 08 07 15  23 30 21.235   -15 27 25.52  .53724 1.4902 146.0 21.8 1694 146
2026 08 07 16  23 30 22.181   -15 26 39.70  .53723 1.4903 146.1 21.7 1707 146
2026 08 07 17  23 30 23.123   -15 25 53.89  .53722 1.4904 146.1 21.7 1720 146
2026 08 07 18  23 30 24.058   -15 25 08.08  .53721 1.4905 146.1 21.7 1733 146
2026 08 07 19  23 30 24.989   -15 24 22.28  .53720 1.4906 146.2 21.7 1746 147
2026 08 07 20  23 30 25.915   -15 23 36.49  .53719 1.4907 146.2 21.7 1759 147
2026 08 07 21  23 30 26.835   -15 22 50.71  .53718 1.4908 146.2 21.7 1773 147
2026 08 07 22  23 30 27.751   -15 22 04.93  .53717 1.4909 146.3 21.7 1786 147
2026 08 07 23  23 30 28.661   -15 21 19.16  .53716 1.4910 146.3 21.7 1799 147
2026 08 08 00  23 30 29.566   -15 20 33.39  .53715 1.4911 146.3 21.7 1813 147
2026 08 08 01  23 30 30.465   -15 19 47.64  .53714 1.4912 146.3 21.7 1826 147
2026 08 08 02  23 30 31.360   -15 19 01.89  .53713 1.4913 146.4 21.7 1840 147
2026 08 08 03  23 30 32.249   -15 18 16.14  .53712 1.4914 146.4 21.7 1853 147
2026 08 08 04  23 30 33.134   -15 17 30.41  .53711 1.4915 146.4 21.7 1867 147
2026 08 08 05  23 30 34.013   -15 16 44.68  .53710 1.4916 146.5 21.7 1881 147
2026 08 08 06  23 30 34.887   -15 15 58.96  .53709 1.4917 146.5 21.7 1895 147
2026 08 08 07  23 30 35.756   -15 15 13.24  .53708 1.4918 146.5 21.7 1909 147
2026 08 08 08  23 30 36.619   -15 14 27.53  .53708 1.4919 146.6 21.7 1922 147
2026 08 08 09  23 30 37.478   -15 13 41.83  .53707 1.4920 146.6 21.7 1936 147
2026 08 08 10  23 30 38.332   -15 12 56.14  .53706 1.4921 146.6 21.7 1950 147
2026 08 08 11  23 30 39.180   -15 12 10.45  .53705 1.4922 146.7 21.7 1965 147
2026 08 08 12  23 30 40.023   -15 11 24.78  .53705 1.4923 146.7 21.7 1979 147
2026 08 08 13  23 30 40.861   -15 10 39.11  .53704 1.4924 146.7 21.7 1993 147
2026 08 08 14  23 30 41.694   -15 09 53.44  .53703 1.4925 146.8 21.7 2007 147
2026 08 08 15  23 30 42.522   -15 09 07.79  .53703 1.4926 146.8 21.7 2021 147
2026 08 08 16  23 30 43.345   -15 08 22.14  .53702 1.4927 146.8 21.7 2036 147
2026 08 08 17  23 30 44.163   -15 07 36.49  .53702 1.4928 146.9 21.7 2050 147
2026 08 08 18  23 30 44.975   -15 06 50.86  .53701 1.4929 146.9 21.7 2065 147
2026 08 08 19  23 30 45.783   -15 06 05.23  .53701 1.4930 146.9 21.7 2079 147
2026 08 08 20  23 30 46.585   -15 05 19.62  .53700 1.4931 147.0 21.7 2094 147
2026 08 08 21  23 30 47.382   -15 04 34.00  .53700 1.4932 147.0 21.7 2109 147
2026 08 08 22  23 30 48.175   -15 03 48.40  .53699 1.4933 147.0 21.7 2123 147
2026 08 08 23  23 30 48.962   -15 03 02.80  .53699 1.4934 147.1 21.7 2138 147
2026 08 09 00  23 30 49.744   -15 02 17.21  .53698 1.4935 147.1 21.7 2153 147
2026 08 09 01  23 30 50.521   -15 01 31.63  .53698 1.4936 147.1 21.7 2168 147
2026 08 09 02  23 30 51.293   -15 00 46.06  .53698 1.4937 147.2 21.7 2183 147